This demonstration page uses our WeatherBlox Daily Observations layout. Learn more.

Hourly Observations for December 4, 2016

Temp ( °F °C ) Dew Point ( °F °C ) Humidity (%) Winds ( mph kmh ) Pressure ( in mb ) Visibility ( mi km ) Precip ( " mm )
12:12 am 00:12 Cloudy with Mist and Fog 34 1 32 0 93 93 Calm 30.12 1020 2.5 4.02335 0 0
12:32 am 00:32 Cloudy with Mist and Fog 34 1 32 0 93 93 S 3 6 30.12 1020 3 4.82802 0 0
12:54 am 00:54 Cloudy with Mist and Fog 33 0.6 32 0 96 96 S 3 6 30.08 1019 4 6.43736 0 0.0254
1:02 am 01:02 Cloudy with Mist and Fog 34 1 32 0 93 93 SSW 5 7 30.09 1019 5 8.0467 0 0
1:33 am 01:33 Cloudy with Mist and Fog 33 0.6 32 0 96 96 Calm 30.09 1019 6 9.65604 0 0
1:54 am 01:54 Cloudy 33 0.6 32 0 96 96 WSW 8 13 30.07 1018 8 12.87472 0 0
2:54 am 02:54 Cloudy 33 0.6 32 0 96 96 W 7 11 30.07 1018 9 14.48406 0 0
3:54 am 03:54 Cloudy 33 0.6 32 0 96 96 WSW 6 9 30.06 1018 8 12.87472 0 0
4:54 am 04:54 Cloudy with Mist and Fog 33 0.6 32 0 96 96 WSW 3 6 30.04 1017 6 9.65604 0 0
5:33 am 05:33 Cloudy 33 0.6 32 0 96 96 SSW 5 7 30.06 1018 7 11.26538 0 0
5:54 am 05:54 Cloudy 34 1.1 32 0 92 92 WSW 5 7 30.02 1017 8 12.87472 0 0
6:20 am 06:20 Cloudy 34 1 30 -1 87 87 WSW 7 11 30.06 1018 9 14.48406 0 0
6:54 am 06:54 Cloudy 33 0.6 31 -0.6 92 92 W 8 13 30.03 1017 10 16.0934 0 0
7:54 am 07:54 Cloudy 33 0.6 31 -0.6 92 92 WSW 6 9 30.04 1017 7 11.26538 0 0
8:54 am 08:54 Cloudy with Mist and Fog 33 0.6 31 -0.6 92 92 W 8 13 30.04 1017 6 9.65604 0 0
9:54 am 09:54 Cloudy with Mist and Fog 32 0 31 -0.6 96 96 SW 10 17 30.04 1017 6 9.65604 0 0
10:54 am 10:54 Cloudy 33 0.6 31 -0.6 92 92 SW 9 15 30.04 1017 7 11.26538 0 0
11:54 am 11:54 Cloudy 33 0.6 31 -0.6 92 92 WSW 9 15 30.02 1017 7 11.26538 0 0
12:54 pm 12:54 Cloudy 34 1.1 31 -0.6 89 89 WSW 9 15 30 1016 8 12.87472 0 0
1:28 pm 13:28 Partly Cloudy 36 2 30 -1 81 81 WSW 12 19 30 1016 9 14.48406 0 0
1:54 pm 13:54 Sunny 36 2.2 32 0 86 86 WSW 8 13 29.97 1015 10 16.0934 0 0
2:54 pm 14:54 Sunny 36 2.2 32 0 86 86 SSW 7 11 29.96 1014 10 16.0934 0 0
3:54 pm 15:54 Sunny 37 2.8 32 0 82 82 WSW 5 7 29.95 1014 10 16.0934 0 0
4:54 pm 16:54 Sunny 34 1 30 -1 87 87 S 5 7 29.97 1015 10 16.0934 0 0
5:54 pm 17:54 Clear 33 0.6 31 -0.6 92 92 S 6 9 29.96 1015 10 16.0934 0 0
6:54 pm 18:54 Clear 32 0 30 -1.1 92 92 SSE 5 7 29.96 1015 10 16.0934 0 0
7:54 pm 19:54 Clear 34 1.1 30 -1.1 85 85 Calm 29.95 1014 10 16.0934 0 0
8:54 pm 20:54 Clear 32 0 30 -1.1 92 92 VRB 3 6 29.95 1014 10 16.0934 0 0
9:54 pm 21:54 Clear 33 0.6 30 -1.1 89 89 SE 3 6 29.93 1014 10 16.0934 0 0
10:54 pm 22:54 Clear 31 -0.6 29 -1.7 92 92 SSE 5 7 29.93 1013 10 16.0934 0 0
11:54 pm 23:54 Clear 33 0.6 29 -1.7 85 85 SE 3 6 29.9 1013 10 16.0934 0 0

Powered by AerisWeather